Wetbulb
51.74 47.47 45.38 46.98 47.22 46.27 45.22 44.12 43.27 45.57 48.38 46.82 46.29 46.66 48.34 50.67 51.23 51.04 51.53 52.67 53.75 54.59 56.93 58.13 58.89 60.02 60.87 63.19 66.24 68.70 69.97 74.16 75.96 75.98 75.23 72.47 71.96 73.98 74.87 74.55 76.23 75.20 73.93 73.95
48.91 45.61 48.45 48.31 47.21 45.83 45.28 43.65 43.50 46.21 47.86 46.90 45.84 45.18 48.05 49.52 50.22 51.58 51.72 52.37 53.58 54.65 55.76 57.22 58.30 59.51 60.46 64.77 66.01 68.05 69.60 71.82 74.69 75.64 76.22 76.30 73.16 74.33 75.07 74.92 76.06 76.01 75.27 75.93
46.00 47.18 48.48 46.96 46.02 44.86 44.90 43.44 43.45 42.75 45.65 47.26 45.90 44.35 46.33 49.39 50.67 51.84 53.19 54.52 54.91 54.47 54.75 56.46 57.32 58.72 59.84 62.82 65.69 65.92 69.98 71.84 73.00 75.91 76.07 76.10 74.26 75.75 73.11 73.92 73.48 74.36 75.17 75.52
46.64 49.19 46.83 46.51 45.08 45.82 41.42 45.80 44.61 43.68 42.43 38.38 45.67 36.64 44.73 47.47 48.59 50.59 51.76 52.82 53.82 54.59 55.20 55.99 56.88 57.96 60.03 60.29 62.50 65.67 70.26 72.21 73.96 76.28 74.95 73.44 70.82 72.07 72.24 73.04 73.92 73.75 75.38 74.71
45.70 46.44 46.19 44.75 45.40 46.29 43.21 46.42 44.32 43.85 42.61 41.89 42.36 39.39 43.49 48.12 44.47 48.75 50.00 52.93 53.98 54.98 55.59 55.76 56.29 57.62 58.70 61.01 60.28 65.78 70.57 72.47 74.16 74.81 74.32 73.86 72.42 73.86 74.51 73.21 73.00 73.84 74.89 75.12
47.88 50.77 48.99 47.47 47.87 47.60 48.04 45.35 44.55 44.25 42.66 36.28 41.62 38.21 41.01 44.49 46.07 48.63 51.50 52.24 53.17 54.81 55.76 56.47 57.21 57.70 58.31 59.65 60.99 64.17 68.84 71.66 73.34 73.92 73.77 73.87 72.78 71.38 70.80 70.91 70.49 72.73 72.18 72.72
45.80 47.04 48.69 48.17 45.09 47.90 46.26 42.38 35.65 33.54 35.18 34.45 42.15 39.69 41.88 47.45 49.30 49.67 49.96 51.75 53.64 54.89 55.80 55.59 56.49 56.76 58.36 59.22 61.50 62.75 67.13 70.19 71.58 71.55 73.19 73.55 73.47 74.02 73.80 71.05 73.11 72.57 71.58 71.30
40.73 39.06 45.53 48.31 45.54 43.54 43.09 42.01 34.82 27.70 30.56 34.31 41.88 37.04 41.36 49.13 50.67 50.93 51.17 53.03 53.68 54.26 55.87 56.24 57.23 57.71 57.95 59.09 60.29 61.43 62.95 67.10 69.41 70.25 72.17 73.39 73.92 72.06 72.25 73.99 70.61 73.05 72.14 72.77
39.79 39.56 47.33 47.59 48.13 45.72 42.65 40.41 44.15 36.61 38.43 34.54 39.13 42.95 45.01 48.22 47.74 50.51 50.95 51.86 52.92 53.49 55.76 56.17 57.39 58.60 59.81 60.42 60.87 61.48 63.78 64.02 67.74 71.00 71.82 71.89 73.41 73.55 72.77 74.06 74.84 73.01 73.54 73.17
43.68 36.37 44.39 46.04 47.66 47.60 44.85 46.54 37.86 38.74 30.17 28.80 36.13 38.53 38.52 42.80 43.37 49.09 49.33 50.72 52.85 54.10 54.89 55.79 57.51 58.81 60.14 61.28 62.01 62.28 62.59 62.70 64.56 68.47 69.63 69.96 71.02 72.13 72.80 74.07 73.38 72.93 73.76 74.08
45.20 41.43 40.55 44.75 42.87 41.58 42.08 40.70 39.94 38.81 37.80 31.63 30.93 36.53 45.45 44.71 47.74 48.08 50.20 50.18 51.97 52.71 53.51 54.71 57.08 57.92 58.93 59.88 60.73 62.19 62.43 62.05 63.76 67.34 69.34 70.03 70.78 71.74 71.99 72.24 69.62 72.04 73.00 72.42
45.45 42.15 36.55 39.23 45.79 47.03 44.87 42.18 42.36 34.80 34.10 36.84 34.42 35.06 47.95 48.62 49.10 49.91 50.19 51.10 52.53 52.61 54.68 54.66 55.79 56.68 56.98 58.17 58.96 60.30 62.88 63.31 62.07 65.16 67.24 69.91 70.11 71.47 71.50 70.32 70.42 69.91 70.36 70.55
43.09 36.59 30.76 36.34 42.60 45.44 41.80 42.45 42.52 42.10 41.48 34.88 31.53 35.33 47.15 48.22 47.73 49.29 48.46 49.35 51.23 53.09 52.58 53.35 55.14 55.83 56.15 56.74 57.63 58.69 60.25 61.34 63.41 62.66 65.20 68.87 70.26 70.37 71.05 71.34 70.96 70.48 69.22 65.55
46.32 40.82 36.79 32.76 37.44 41.18 37.69 39.96 41.75 40.64 34.25 35.77 36.32 38.30 42.95 45.21 45.41 46.18 47.90 49.87 50.54 51.74 52.59 53.36 54.19 54.91 56.15 56.93 57.32 57.95 59.04 60.67 62.29 63.51 63.27 67.22 69.65 69.88 71.15 69.75 68.39 66.44 65.60 62.17
43.73 37.75 40.39 41.11 41.20 40.62 39.79 39.89 40.58 39.41 40.17 36.27 37.44 37.91 41.58 43.47 44.86 45.87 47.03 47.47 47.83 49.54 50.39 51.73 52.96 54.36 55.43 56.51 57.10 57.66 58.52 59.88 61.01 63.71 62.98 66.23 69.43 69.93 70.01 67.90 63.10 61.27 59.79 58.70
44.30 38.12 40.80 38.41 41.53 41.64 39.07 41.41 41.82 41.64 40.49 39.47 39.22 37.70 44.29 45.43 45.67 45.16 45.91 46.33 46.97 46.69 48.63 50.30 51.92 52.60 53.74 55.38 55.69 56.58 57.80 58.66 60.65 61.56 63.34 64.02 68.12 66.64 67.11 65.46 63.21 60.54 57.93 56.11
42.71 42.14 38.59 34.70 41.02 40.38 36.28 39.62 39.83 40.12 40.73 39.71 33.84 39.21 43.17 42.13 42.45 42.96 43.60 44.82 45.47 45.82 46.41 48.32 49.73 51.40 53.09 53.88 54.90 55.62 57.11 58.66 59.56 59.99 63.85 63.65 66.76 63.18 62.86 62.43 61.49 59.20 57.10 55.99
44.26 41.19 39.38 36.08 38.82 29.64 41.56 45.26 42.79 41.33 40.12 41.31 40.33 40.58 39.74 39.25 41.00 41.38 42.04 42.26 43.34 44.02 44.53 46.21 48.96 50.57 52.59 53.73 54.84 56.18 57.32 57.52 58.21 59.44 63.14 64.57 63.65 61.66 59.93 58.43 57.82 57.52 56.31 54.92
46.65 42.60 36.94 33.69 33.97 38.08 40.78 42.64 38.80 36.38 35.77 41.45 36.05 37.38 38.35 38.59 37.75 36.06 39.74 41.20 41.32 42.32 44.70 46.74 48.62 49.14 50.89 52.90 54.36 55.01 56.14 56.39 57.05 58.52 62.57 64.64 61.19 59.96 58.84 56.75 56.65 55.27 53.84 51.96
46.49 45.18 39.66 37.36 31.86 29.48 40.08 43.38 45.90 43.02 32.85 40.28 38.19 34.63 34.07 34.02 27.63 32.29 38.92 40.40 40.69 41.38 43.23 44.39 45.73 48.30 50.07 51.72 53.84 53.99 54.73 55.70 56.29 58.67 63.45 63.99 60.71 60.48 57.48 56.65 54.63 54.64 52.48 51.30
39.31 39.62 36.64 35.83 34.40 38.11 44.57 45.66 45.43 31.67 32.70 37.25 37.08 34.42 33.15 31.00 33.41 36.15 38.05 37.82 39.49 40.25 40.58 42.22 43.65 47.05 47.77 51.40 52.55 52.91 53.92 54.78 57.25 60.57 64.54 62.20 60.19 58.85 56.86 55.43 54.54 51.89 51.92 49.09
38.14 36.63 36.47 37.79 34.85 31.18 47.15 43.33 33.77 36.63 37.66 37.25 34.63 34.79 33.95 35.01 35.76 37.90 40.55 42.85 45.99 45.72 44.14 42.51 42.34 44.53 48.79 50.30 52.14 52.01 52.61 55.51 58.10 62.68 62.88 59.37 58.48 56.93 55.95 54.48 52.97 52.17 49.38 44.56
37.24 41.40 37.72 38.54 39.94 48.35 48.53 46.35 44.73 43.24 35.36 34.63 33.00 34.28 34.72 34.95 37.48 40.32 43.55 47.89 46.93 46.96 45.94 45.50 44.62 45.32 47.35 51.89 52.58 51.88 53.80 56.39 59.82 61.13 58.53 57.55 56.69 55.65 54.92 53.03 50.44 48.54 48.16 44.43
43.19 46.14 41.87 41.97 44.91 46.14 47.72 46.19 43.85 42.21 36.81 36.26 35.17 35.39 37.29 38.22 41.15 48.87 50.88 48.24 47.91 47.98 47.51 47.44 45.94 46.41 49.17 52.96 53.14 54.16 55.96 58.29 60.57 58.09 56.93 55.87 54.55 53.07 52.57 50.93 50.74 49.75 47.49 44.47
44.13 44.48 42.14 42.86 46.31 44.65 45.03 42.16 43.21 39.53 38.82 37.23 37.22 37.86 39.98 41.79 43.65 48.02 49.93 51.98 50.68 51.16 51.30 51.14 50.33 51.88 53.16 54.86 55.02 56.57 59.03 59.19 56.93 55.31 53.72 53.38 52.20 51.01 49.51 49.58 49.47 50.30 49.60 46.35
47.43 44.76 41.18 39.84 45.29 37.17 38.14 43.55 41.22 38.10 36.54 37.09 36.68 38.74 40.92 43.34 43.27 45.22 47.79 52.08 51.30 50.29 50.32 49.46 49.90 50.04 53.20 55.90 56.54 57.66 57.81 56.19 54.03 52.02 51.30 51.06 50.33 48.55 46.51 43.51 41.13 39.35 40.01 39.62
MSLP
1006.70 1006.51 1005.55 1005.16 1005.80 1005.98 1005.58 1004.85 1003.71 1003.02 1002.53 1002.25 1001.35 1000.59 1000.06 1000.00 999.52 998.69 998.41 998.42 998.44 998.57 998.85 999.17 999.34 999.74 999.98 1000.39 1001.01 1001.67 1002.29 1002.68 1003.35 1004.18 1004.78 1005.15 1005.45 1005.11 1004.70 1005.08 1005.74 1006.87 1007.42 1007.69
1006.38 1005.09 1004.93 1005.85 1006.24 1005.94 1005.42 1004.60 1003.47 1002.73 1002.64 1002.61 1001.68 1000.24 999.74 999.07 998.26 997.71 997.46 997.33 997.27 997.47 997.90 998.31 998.67 999.02 999.35 999.74 1000.36 1001.17 1001.76 1002.24 1002.47 1003.48 1004.00 1004.65 1004.94 1004.88 1004.50 1004.70 1005.50 1006.32 1007.00 1007.24
1006.76 1006.16 1006.02 1006.30 1005.86 1005.35 1004.94 1004.42 1003.77 1003.61 1003.29 1002.66 1001.10 999.08 998.34 997.87 996.92 996.95 996.40 995.88 996.17 996.45 996.72 997.21 997.88 998.29 998.72 999.08 999.68 1000.68 1001.19 1001.54 1002.11 1002.59 1003.71 1004.30 1004.75 1004.86 1004.75 1004.67 1005.27 1006.07 1006.61 1007.04
1006.79 1005.93 1006.10 1005.97 1005.70 1005.50 1005.07 1005.13 1004.97 1004.37 1003.62 1001.74 1001.64 998.90 998.25 997.01 996.17 995.41 995.22 995.25 995.10 995.34 995.87 996.32 996.74 997.35 997.93 998.30 998.83 999.82 1000.42 1000.95 1001.38 1001.94 1002.94 1003.81 1004.23 1004.28 1004.35 1004.47 1004.62 1005.73 1006.33 1006.80
1006.71 1006.01 1005.97 1006.04 1005.82 1006.45 1006.00 1005.89 1005.29 1004.32 1003.13 1002.22 1000.42 998.99 997.15 996.58 997.73 997.03 996.25 994.41 994.34 994.42 994.59 995.11 995.71 996.23 996.92 997.55 997.87 998.74 999.65 1000.30 1000.61 1001.42 1002.35 1003.33 1003.91 1004.09 1004.19 1004.14 1004.25 1005.24 1006.26 1006.59
1006.58 1006.04 1005.73 1005.79 1006.50 1006.77 1006.12 1005.20 1004.57 1004.07 1002.71 1001.48 1000.08 1000.74 997.20 995.99 996.21 995.93 995.26 994.83 995.01 995.10 994.17 994.34 994.84 995.47 995.93 996.61 997.14 997.68 998.80 999.65 1000.35 1000.89 1001.77 1002.54 1003.19 1003.76 1004.22 1004.15 1004.30 1004.61 1005.50 1006.20
1006.76 1005.69 1005.28 1006.52 1006.38 1005.95 1005.78 1005.57 1004.97 1004.54 1003.00 1001.45 999.81 999.15 996.92 996.55 996.13 995.92 995.66 995.29 995.07 995.10 994.55 994.53 994.78 995.06 995.48 996.00 996.55 997.13 997.92 999.04 999.97 1000.57 1001.15 1001.98 1002.63 1003.15 1003.52 1003.80 1004.16 1004.22 1004.57 1005.30
1007.12 1005.79 1006.10 1006.34 1006.63 1005.97 1006.22 1006.49 1006.58 1005.72 1004.51 1002.73 1001.39 998.95 996.82 996.62 996.85 996.54 996.48 996.04 995.75 995.60 995.22 995.22 995.26 995.64 995.65 996.14 996.57 996.99 997.40 998.29 999.49 1000.19 1000.80 1001.67 1002.17 1002.60 1003.03 1003.52 1003.82 1004.08 1003.71 1004.53
1009.15 1007.79 1007.74 1007.62 1006.47 1006.74 1005.96 1005.99 1006.76 1007.10 1006.30 1003.95 1000.74 998.69 999.14 998.23 998.73 997.53 996.97 996.76 996.24 996.13 996.49 996.94 996.73 996.77 996.92 996.69 996.94 997.37 997.66 998.23 998.88 999.79 1000.60 1001.42 1001.90 1002.32 1002.63 1003.13 1003.86 1003.40 1002.84 1003.93
1011.05 1009.38 1008.88 1007.58 1006.70 1005.98 1005.26 1006.31 1006.47 1007.45 1006.33 1003.95 1000.97 999.28 999.12 999.81 1000.37 997.60 997.29 997.90 997.12 997.18 996.98 997.20 997.56 998.45 998.78 998.19 998.12 998.26 998.25 998.41 998.92 999.29 1000.11 1001.16 1001.85 1002.25 1002.68 1003.23 1003.57 1003.78 1004.01 1003.89
1011.67 1011.85 1009.23 1008.75 1006.76 1005.61 1005.12 1005.44 1006.85 1008.51 1007.67 1005.28 1002.66 1000.03 998.55 999.32 998.71 998.79 998.03 998.70 998.97 997.38 997.45 997.64 997.76 998.52 999.34 999.15 998.59 998.36 998.64 999.08 998.86 999.03 999.39 1000.26 1001.13 1001.81 1002.52 1003.23 1003.52 1003.69 1004.71 1004.75
1012.95 1012.54 1010.62 1008.93 1007.14 1005.60 1005.18 1005.35 1006.13 1007.54 1006.46 1006.35 1005.04 1000.78 1000.13 999.62 999.34 999.21 999.09 998.91 998.22 998.52 997.49 997.77 997.73 998.30 999.28 999.46 999.35 999.21 999.19 998.94 998.76 998.62 998.99 999.57 1000.59 1001.40 1002.48 1003.30 1003.83 1003.91 1004.44 1005.86
1013.87 1013.49 1011.61 1008.53 1006.08 1004.86 1005.89 1005.70 1005.81 1006.21 1006.32 1005.69 1004.99 1001.14 1001.16 1000.34 1000.05 999.93 999.65 999.44 998.99 998.16 998.08 998.42 998.01 997.86 998.39 999.12 999.47 999.51 999.52 999.40 998.83 998.44 998.51 999.12 1000.05 1000.90 1002.03 1002.95 1003.68 1004.52 1005.44 1006.90
1013.26 1012.95 1012.08 1010.16 1007.65 1006.63 1005.87 1005.40 1005.05 1005.25 1005.83 1004.86 1003.75 1002.06 1001.51 1001.28 1000.91 1000.83 1000.78 1000.04 999.33 998.73 998.19 997.76 997.74 997.72 997.60 998.52 999.13 999.50 999.63 999.68 999.31 998.71 998.21 998.55 999.40 1000.49 1001.91 1003.12 1004.40 1004.96 1006.44 1007.76
1012.77 1012.14 1011.04 1009.51 1008.15 1006.92 1005.47 1004.08 1003.54 1003.50 1003.80 1004.24 1004.17 1003.34 1002.46 1002.14 1001.79 1002.04 1001.73 1000.69 999.88 999.05 998.64 998.27 997.85 997.72 997.68 998.05 998.78 999.19 999.51 999.61 999.67 998.89 998.37 998.27 999.09 1000.26 1001.99 1003.41 1004.89 1006.04 1007.28 1008.93
1012.07 1011.11 1010.35 1008.69 1007.31 1005.60 1003.94 1003.16 1003.17 1003.50 1004.29 1004.79 1004.69 1003.88 1003.58 1002.87 1002.87 1002.65 1002.18 1001.05 1000.08 999.90 999.51 998.77 998.20 998.00 997.79 997.92 998.55 998.93 999.11 999.39 999.56 999.35 998.50 998.25 998.83 1001.07 1002.56 1003.51 1004.65 1005.68 1007.02 1008.86
1010.36 1009.92 1009.34 1007.58 1006.34 1004.88 1003.52 1003.33 1004.07 1004.54 1005.17 1005.54 1005.48 1004.50 1004.47 1004.17 1004.09 1003.47 1002.80 1001.62 1000.36 999.73 999.67 999.36 998.76 998.13 997.73 998.17 998.48 998.54 998.72 999.07 999.32 999.44 998.57 998.11 999.28 1001.51 1002.84 1003.64 1004.56 1005.67 1006.59 1008.47
1008.59 1009.03 1009.40 1007.61 1005.96 1004.30 1002.52 1003.37 1004.58 1005.24 1005.63 1005.90 1005.58 1005.78 1006.22 1005.83 1005.03 1004.03 1003.04 1001.89 1000.51 999.98 999.51 999.40 998.69 998.17 997.90 997.98 998.09 998.24 998.33 998.58 998.94 999.17 998.63 998.12 1000.37 1001.89 1003.47 1004.57 1005.46 1006.75 1007.61 1009.62
1008.27 1008.60 1008.71 1007.60 1006.01 1004.50 1003.35 1003.86 1005.43 1006.11 1004.91 1005.54 1007.01 1007.32 1006.47 1005.77 1005.13 1001.61 1001.98 1001.60 1000.48 999.61 999.07 998.61 998.47 998.32 998.09 997.68 997.38 997.86 997.93 998.20 998.33 998.68 998.44 998.72 1000.67 1002.16 1003.75 1005.17 1006.34 1007.47 1008.99 1010.36
1007.84 1008.20 1008.51 1007.35 1006.03 1004.27 1003.79 1004.93 1005.81 1006.07 1005.48 1006.36 1007.15 1006.81 1006.34 1005.66 1004.59 1001.11 1000.03 1000.38 999.99 999.47 998.61 998.08 998.18 997.76 997.33 997.04 996.96 997.13 997.49 997.56 997.69 998.23 998.21 999.34 1001.01 1002.17 1003.95 1005.39 1006.94 1008.30 1010.03 1012.01
1008.04 1007.73 1007.29 1006.16 1005.54 1004.27 1003.41 1004.43 1005.96 1007.19 1007.10 1006.98 1007.48 1006.99 1006.06 1005.15 1003.97 1000.64 999.59 998.43 997.68 997.05 996.96 997.24 997.71 996.97 996.90 996.45 996.66 996.58 997.00 997.09 997.42 997.94 998.25 1000.22 1001.34 1002.58 1004.06 1005.79 1007.61 1008.97 1010.64 1011.95
1008.49 1008.12 1007.29 1006.55 1005.34 1003.91 1004.02 1005.76 1007.58 1007.96 1007.79 1007.90 1007.26 1006.65 1005.16 1003.91 1001.33 999.28 997.48 995.91 994.66 993.94 994.02 995.44 996.38 996.68 996.26 996.06 995.79 996.14 996.49 996.94 997.24 997.49 998.92 1000.56 1001.76 1003.15 1004.33 1005.91 1007.87 1009.33 1010.69 1011.26
1008.62 1008.31 1008.16 1007.73 1005.89 1005.20 1005.10 1006.26 1007.38 1008.00 1008.34 1007.72 1006.86 1006.04 1004.96 1002.68 1000.09 997.76 995.65 994.02 993.56 993.11 993.60 994.47 995.00 995.30 995.35 994.89 994.80 995.49 995.95 996.39 996.71 998.01 999.45 1000.82 1002.29 1003.49 1004.49 1005.99 1007.77 1009.28 1010.86 1010.46
1008.40 1007.69 1007.47 1007.17 1005.85 1005.60 1005.87 1006.71 1007.70 1007.98 1008.17 1007.46 1006.79 1005.46 1003.84 1001.64 999.09 996.10 994.52 993.55 993.25 993.21 993.41 993.90 994.47 994.72 994.22 993.84 994.41 994.82 995.31 995.97 996.95 998.39 999.92 1001.15 1002.45 1004.24 1005.47 1006.87 1007.99 1008.27 1010.53 1011.71
1008.51 1008.00 1007.40 1006.83 1006.01 1006.60 1006.57 1007.65 1007.64 1007.93 1007.71 1006.86 1005.87 1004.74 1002.80 1000.81 998.65 996.76 995.01 993.21 993.26 993.24 993.43 993.81 994.07 993.81 993.42 993.51 993.93 994.35 995.44 996.21 997.51 999.00 1000.72 1002.20 1003.42 1004.65 1006.20 1007.59 1008.82 1009.67 1011.23 1011.50
1007.74 1007.55 1007.71 1007.28 1007.70 1008.45 1008.04 1007.66 1008.24 1007.99 1007.30 1006.38 1005.25 1003.36 1001.97 1000.70 999.15 997.45 995.97 994.75 994.49 994.52 994.60 994.65 994.52 994.22 993.85 994.05 994.54 995.09 995.78 996.63 998.11 999.93 1001.33 1003.04 1004.51 1005.82 1007.19 1008.59 1010.65 1012.06 1012.65 1013.14
Wind_Speed
9 12 15 16 14 17 18 21 26 26 24 22 24 27 27 24 26 27 24 24 25 25 23 22 20 18 19 15 12 14 14 13 12 11 12 10 9 10 12 12 14 16 15 15
13 16 10 11 16 17 21 25 26 25 19 20 25 31 28 27 27 27 26 26 25 25 23 22 22 19 19 15 13 13 14 15 13 11 11 10 11 12 11 12 12 14 15 14
16 21 7 13 17 20 20 22 21 25 26 25 26 29 23 25 21 15 23 20 21 24 23 23 23 21 21 18 15 15 15 14 14 15 11 9 9 8 6 5 12 12 15 14
12 10 11 19 19 17 20 21 23 24 24 22 25 23 25 21 20 16 17 20 20 20 23 23 23 24 22 20 18 16 15 15 14 14 12 15 10 12 12 10 12 13 14 14
19 20 18 18 18 16 22 19 24 28 26 25 27 17 13 17 16 12 20 6 8 14 19 22 24 24 23 21 19 15 14 14 14 14 15 12 13 10 9 9 11 14 13 14
21 13 21 13 15 18 22 25 24 25 23 17 24 9 11 13 2 12 10 5 2 12 14 16 21 23 20 21 21 15 16 13 14 15 16 17 18 12 12 12 8 12 13 12
19 21 7 1 14 21 20 21 13 15 6 14 14 16 16 13 11 12 11 11 13 3 10 6 11 16 16 20 18 17 15 14 13 15 15 17 17 16 14 14 11 12 13 12
17 17 16 15 21 24 17 16 9 13 16 21 26 20 9 1 10 6 4 8 10 4 8 6 6 11 12 14 15 16 13 13 15 14 14 14 16 12 12 11 10 11 11 12
14 11 28 24 24 11 22 16 15 11 20 19 19 15 12 11 14 13 9 5 7 3 7 5 6 9 12 8 12 13 14 12 13 14 11 11 13 15 13 15 13 12 9 12
10 25 13 19 15 20 20 17 8 7 8 15 17 21 7 9 6 14 3 11 1 3 5 5 3 7 6 7 6 8 8 11 14 15 14 12 11 14 14 12 14 10 7 11
18 5 17 21 21 24 17 11 1 4 11 7 15 9 11 21 15 19 20 6 26 5 9 6 1 4 2 4 7 4 9 12 14 14 14 13 14 13 12 13 10 10 11 11
7 8 17 25 25 26 16 12 11 6 10 13 15 19 21 9 21 19 18 18 17 17 10 11 11 6 5 3 5 5 6 6 13 14 14 14 12 13 12 13 11 9 11 11
6 3 11 14 11 11 17 18 23 22 19 20 17 17 18 21 20 17 19 20 23 20 16 19 18 11 7 5 5 6 4 7 9 13 15 13 12 10 13 13 13 14 14 14
10 9 13 14 24 23 26 25 25 21 6 20 20 28 24 21 22 24 25 26 25 21 23 19 18 17 11 8 7 6 6 5 10 11 13 14 13 11 11 13 10 11 14 15
3 10 19 22 24 25 28 30 27 23 20 10 18 24 24 24 26 26 24 24 22 23 23 23 19 19 17 12 12 10 8 7 8 10 13 12 13 11 13 16 19 17 13 9
5 7 19 24 24 23 26 26 25 12 16 18 20 29 28 22 26 23 25 24 23 22 24 24 22 23 20 16 14 13 11 9 7 11 12 14 14 15 17 20 18 15 16 15
18 16 14 20 21 24 17 13 11 15 15 11 17 30 27 26 23 24 27 28 27 28 27 26 26 23 18 18 17 15 13 10 9 10 11 14 20 16 15 15 14 12 16 15
15 13 9 14 22 17 17 14 5 11 17 21 24 23 18 27 30 29 29 31 32 31 29 28 24 22 20 18 18 15 13 12 10 10 13 10 17 17 16 17 17 15 16 15
11 10 7 9 15 23 19 10 8 12 26 18 7 24 29 23 24 34 24 26 28 27 26 22 19 20 21 22 19 17 14 15 13 13 13 17 16 19 18 18 18 17 17 17
9 9 10 18 19 15 14 14 18 18 16 7 20 21 23 20 16 22 22 15 18 20 20 18 18 18 18 21 19 17 16 16 15 13 12 18 17 20 19 19 19 17 17 16
10 11 15 12 16 13 14 28 16 9 15 21 21 22 24 21 17 28 28 28 23 22 23 22 21 20 14 19 21 18 17 16 13 13 13 16 17 19 22 20 18 19 19 17
9 7 10 8 14 9 25 13 6 6 11 20 23 23 26 26 29 27 27 23 20 19 19 20 16 19 18 17 21 19 19 16 15 10 15 17 18 17 17 23 20 21 20 20
8 9 8 8 11 23 17 16 11 14 17 19 24 23 24 26 30 29 24 8 6 2 8 13 15 15 15 21 19 19 19 17 15 17 18 20 20 18 20 22 21 18 17 22
15 16 10 18 12 22 21 17 19 16 17 22 21 23 24 25 26 19 13 3 3 6 10 12 13 15 15 17 19 19 18 17 16 19 19 19 21 18 16 14 14 16 16 17
16 16 13 19 19 17 17 20 18 19 19 22 21 22 23 21 19 17 12 7 7 7 8 5 4 5 9 14 17 14 12 18 19 19 18 18 16 18 16 12 10 12 11 9
7 11 8 10 16 3 14 20 20 18 21 21 22 21 20 16 15 14 11 8 7 6 7 6 5 7 6 12 12 14 18 22 22 20 17 16 15 15 15 15 15 26 18 24
Wind_Direction
316 288 272 336 325 304 297 288 290 290 296 302 292 295 292 289 282 276 265 259 256 252 251 244 240 236 231 228 220 200 212 217 203 208 203 208 214 215 204 193 187 166 201 191
284 283 352 325 310 293 288 287 287 299 301 315 296 284 286 280 270 258 257 259 257 251 245 237 243 226 236 229 206 206 211 209 211 203 207 201 199 214 206 193 179 173 197 185
302 290 353 295 295 298 298 300 310 311 311 288 279 280 295 305 294 273 275 256 249 252 242 235 232 230 230 224 196 212 206 207 208 208 206 206 210 224 246 185 175 190 194 187
294 275 288 311 306 316 307 320 314 301 303 296 302 292 286 277 271 250 243 248 252 238 235 240 226 226 224 225 214 203 206 207 200 213 200 199 199 199 203 205 185 185 197 185
287 302 311 302 305 334 304 304 299 288 281 289 280 272 295 307 5 341 333 313 277 255 237 227 228 227 216 217 224 191 196 203 215 195 196 204 199 206 204 213 173 185 190 186
275 282 281 306 322 297 294 289 290 296 281 269 274 314 286 321 300 240 259 225 243 290 267 227 217 224 210 217 211 199 188 197 203 199 199 199 203 196 210 220 183 186 183 187
315 292 330 32 281 296 320 313 308 296 274 281 285 309 309 351 314 311 308 312 309 285 282 232 241 219 225 217 215 213 189 185 201 214 200 208 209 212 213 209 200 188 186 189
295 310 317 347 316 304 311 309 306 293 300 310 308 283 286 24 39 357 312 308 261 271 291 342 292 228 237 227 230 225 227 193 197 207 208 206 212 211 213 219 220 205 195 180
319 284 322 300 296 298 288 276 284 279 280 270 270 272 286 32 11 330 354 360 4 239 32 328 304 352 340 330 228 236 232 233 205 198 197 223 219 226 204 213 222 245 188 166
299 304 292 292 315 290 285 304 296 271 281 300 297 320 36 34 258 255 48 314 270 268 204 145 323 85 326 323 310 291 286 236 238 208 193 204 220 223 223 214 214 207 231 153
307 252 286 299 294 311 308 257 206 301 287 287 292 274 2 328 359 358 341 81 302 234 302 312 230 72 346 298 302 297 213 235 241 221 196 196 208 202 215 206 197 182 186 157
19 299 296 299 292 282 267 302 318 296 302 292 293 280 284 305 330 328 312 303 316 319 273 285 278 183 205 303 315 289 303 251 241 227 216 190 213 187 199 200 192 190 152 145
0 267 303 296 302 341 325 300 311 303 295 276 274 282 299 305 308 304 306 305 303 292 274 298 297 244 222 236 262 290 283 287 257 234 218 204 189 202 193 193 179 176 150 131
300 243 254 279 295 310 308 294 281 272 248 279 274 291 303 298 311 318 315 299 293 285 287 279 265 267 252 240 264 268 283 266 286 254 230 207 188 182 176 171 107 134 127 129
240 274 285 290 294 293 285 285 287 293 297 300 307 301 299 302 305 313 294 292 293 290 282 277 272 272 260 253 264 260 262 265 264 272 244 215 177 149 152 140 114 101 95 95
219 257 279 288 284 286 292 300 300 298 318 297 295 291 292 307 311 304 298 298 286 282 285 283 272 268 272 256 256 256 251 257 246 271 243 225 159 140 156 143 140 130 119 120
266 272 290 283 298 304 296 348 317 301 300 294 284 291 305 307 305 308 303 286 281 279 277 275 273 270 256 254 256 247 249 240 239 253 250 230 129 138 146 157 146 141 138 133
269 272 278 288 298 293 323 9 341 306 299 294 290 299 318 310 301 287 280 282 280 277 275 269 266 265 262 256 248 243 232 237 234 242 256 195 139 136 137 139 137 142 130 129
233 271 284 283 296 293 302 9 10 328 300 313 17 313 297 294 295 281 258 260 262 264 265 261 256 254 249 250 236 233 221 231 228 226 232 143 147 134 137 137 134 129 123 115
289 263 268 287 289 305 319 1 351 339 291 349 330 314 305 306 291 281 296 279 266 262 267 260 260 249 243 233 241 221 218 222 220 221 218 144 151 144 136 133 129 127 125 130
300 291 282 296 290 287 306 357 348 314 318 322 318 308 302 294 277 280 287 280 267 255 242 239 239 250 232 227 227 213 215 218 215 219 170 142 149 137 134 129 130 127 131 126
294 286 293 303 300 285 348 349 325 284 311 311 311 307 300 299 293 294 292 288 275 257 225 216 213 227 233 243 208 210 214 219 205 205 139 139 140 136 136 131 130 129 127 115
283 322 293 287 287 301 322 338 351 329 314 307 304 302 303 296 298 299 294 296 337 93 152 184 198 207 223 227 198 201 209 205 208 143 135 136 137 138 137 132 131 129 130 114
291 301 293 306 299 312 331 347 327 326 314 305 300 298 301 298 302 310 343 33 117 146 152 166 191 212 217 183 192 198 195 201 144 136 135 138 133 130 126 127 132 127 139 136
292 294 276 291 308 330 329 324 327 328 315 308 308 307 308 309 317 331 336 62 97 100 103 127 162 198 187 175 180 177 157 138 129 126 128 129 123 121 118 109 116 130 133 158
290 317 314 309 343 287 306 318 340 320 318 316 316 320 321 324 328 332 339 21 69 80 86 78 66 69 90 159 160 142 135 132 127 125 125 129 129 120 116 109 89 59 67 90